Time,TemperatureF,DewpointF,PressureIn,WindDirection,WindDirectionDegrees,WindSpeedMPH,WindSpeedGustMPH,Humidity,HourlyPrecipIn,Conditions,Clouds,dailyrainin,SoftwareType,DateUTC
2013-02-09 00:01:00,31.0,21.0,-100.00,North,360,6.0,8.0,67,-99.99,,,-99.99,,2013-02-09 06:01:00,
2013-02-09 00:11:00,31.0,22.0,-100.00,NNE,20,9.0,11.0,67,-99.99,,,-99.99,,2013-02-09 06:11:00,
2013-02-09 00:21:00,31.0,22.0,-100.00,NNE,20,9.0,11.0,67,-99.99,,,-99.99,,2013-02-09 06:21:00,
2013-02-09 00:31:00,31.0,24.0,-100.00,NE,40,9.0,11.0,74,-99.99,,,-99.99,,2013-02-09 06:31:00,
2013-02-09 00:41:00,30.0,22.0,-100.00,NE,50,8.0,9.0,72,-99.99,,,-99.99,,2013-02-09 06:41:00,
2013-02-09 00:51:00,30.0,22.0,-100.00,NE,50,7.0,7.0,70,-99.99,,,-99.99,,2013-02-09 06:51:00,
2013-02-09 01:01:00,30.0,22.0,-100.00,NE,50,7.0,7.0,70,-99.99,,,-99.99,,2013-02-09 07:01:00,
2013-02-09 01:11:00,30.0,23.0,-100.00,NE,50,6.0,7.0,73,-99.99,,,-99.99,,2013-02-09 07:11:00,
2013-02-09 01:21:00,30.0,23.0,-100.00,NE,50,6.0,7.0,73,-99.99,,,-99.99,,2013-02-09 07:21:00,
2013-02-09 01:31:00,30.0,22.0,-100.00,ENE,70,6.0,7.0,70,-99.99,,,-99.99,,2013-02-09 07:31:00,
2013-02-09 01:41:00,30.0,22.0,-100.00,ENE,70,6.0,7.0,70,-99.99,,,-99.99,,2013-02-09 07:41:00,
2013-02-09 01:51:00,30.0,22.0,-100.00,East,100,3.0,6.0,71,-99.99,,,-99.99,,2013-02-09 07:51:00,
2013-02-09 02:01:00,29.0,22.0,-100.00,East,80,5.0,7.0,73,-99.99,,,-99.99,,2013-02-09 08:01:00,
2013-02-09 02:11:00,29.0,22.0,-100.00,East,80,5.0,7.0,73,-99.99,,,-99.99,,2013-02-09 08:11:00,
2013-02-09 02:21:00,29.0,22.0,-100.00,East,100,6.0,7.0,73,-99.99,,,-99.99,,2013-02-09 08:21:00,
2013-02-09 02:31:00,29.0,21.0,-100.00,East,100,8.0,9.0,71,-99.99,,,-99.99,,2013-02-09 08:31:00,
2013-02-09 02:41:00,29.0,21.0,-100.00,East,100,8.0,9.0,71,-99.99,,,-99.99,,2013-02-09 08:41:00,
2013-02-09 02:51:00,29.0,21.0,-100.00,East,90,6.0,9.0,70,-99.99,,,-99.99,,2013-02-09 08:51:00,
2013-02-09 03:02:00,29.0,20.0,-100.00,East,80,6.0,7.0,71,-99.99,,,-99.99,,2013-02-09 09:02:00,
2013-02-09 03:11:00,29.0,20.0,-100.00,East,80,6.0,7.0,71,-99.99,,,-99.99,,2013-02-09 09:11:00,
2013-02-09 03:21:00,29.0,20.0,-100.00,ESE,110,6.0,7.0,70,-99.99,,,-99.99,,2013-02-09 09:21:00,
2013-02-09 03:31:00,29.0,21.0,-100.00,ESE,110,6.0,7.0,71,-99.99,,,-99.99,,2013-02-09 09:31:00,
2013-02-09 03:41:00,29.0,21.0,-100.00,East,100,5.0,6.0,72,-99.99,,,-99.99,,2013-02-09 09:41:00,
2013-02-09 03:51:00,29.0,21.0,-100.00,East,100,5.0,6.0,72,-99.99,,,-99.99,,2013-02-09 09:51:00,
2013-02-09 04:01:00,29.0,21.0,-100.00,SE,130,6.0,7.0,71,-99.99,,,-99.99,,2013-02-09 10:01:00,
2013-02-09 04:11:00,29.0,21.0,-100.00,SE,130,6.0,7.0,71,-99.99,,,-99.99,,2013-02-09 10:11:00,
2013-02-09 04:21:00,29.0,21.0,-100.00,ESE,110,5.0,6.0,72,-99.99,,,-99.99,,2013-02-09 10:21:00,
2013-02-09 04:31:00,28.0,21.0,-100.00,ESE,110,6.0,7.0,74,-99.99,,,-99.99,,2013-02-09 10:31:00,
2013-02-09 04:41:00,28.0,21.0,-100.00,East,100,6.0,8.0,74,-99.99,,,-99.99,,2013-02-09 10:41:00,
2013-02-09 04:51:00,28.0,21.0,-100.00,East,100,6.0,8.0,74,-99.99,,,-99.99,,2013-02-09 10:51:00,
2013-02-09 05:01:00,28.0,20.0,-100.00,East,90,8.0,9.0,72,-99.99,,,-99.99,,2013-02-09 11:01:00,
2013-02-09 05:11:00,28.0,21.0,-100.00,ESE,120,6.0,8.0,74,-99.99,,,-99.99,,2013-02-09 11:11:00,
2013-02-09 05:21:00,28.0,21.0,-100.00,ESE,120,6.0,8.0,74,-99.99,,,-99.99,,2013-02-09 11:21:00,
2013-02-09 05:31:00,27.0,21.0,-100.00,ESE,120,6.0,8.0,75,-99.99,,,-99.99,,2013-02-09 11:31:00,
2013-02-09 05:41:00,27.0,20.0,-100.00,ESE,110,6.0,7.0,75,-99.99,,,-99.99,,2013-02-09 11:41:00,
2013-02-09 05:52:00,27.0,20.0,-100.00,ESE,110,6.0,7.0,75,-99.99,,,-99.99,,2013-02-09 11:52:00,
2013-02-09 06:01:00,27.0,20.0,-100.00,ESE,120,6.0,7.0,76,-99.99,,,-99.99,,2013-02-09 12:01:00,
2013-02-09 06:11:00,27.0,20.0,-100.00,ESE,120,6.0,7.0,76,-99.99,,,-99.99,,2013-02-09 12:11:00,
2013-02-09 06:21:00,26.0,20.0,-100.00,ESE,120,8.0,9.0,77,-99.99,,,-99.99,,2013-02-09 12:21:00,
2013-02-09 06:32:00,26.0,20.0,-100.00,ESE,120,8.0,9.0,77,-99.99,,,-99.99,,2013-02-09 12:32:00,
2013-02-09 06:41:00,26.0,20.0,-100.00,ESE,120,8.0,9.0,77,-99.99,,,-99.99,,2013-02-09 12:41:00,
2013-02-09 06:52:00,26.0,21.0,-100.00,ESE,120,8.0,10.0,78,-99.99,,,-99.99,,2013-02-09 12:52:00,
2013-02-09 07:01:00,26.0,20.0,-100.00,ESE,120,9.0,10.0,77,-99.99,,,-99.99,,2013-02-09 13:01:00,
2013-02-09 07:11:00,26.0,20.0,-100.00,ESE,120,8.0,10.0,78,-99.99,,,-99.99,,2013-02-09 13:11:00,
2013-02-09 07:21:00,26.0,20.0,-100.00,ESE,120,8.0,10.0,78,-99.99,,,-99.99,,2013-02-09 13:21:00,
2013-02-09 07:31:00,26.0,20.0,-100.00,ESE,120,7.0,9.0,79,-99.99,,,-99.99,,2013-02-09 13:31:00,
2013-02-09 07:41:00,26.0,20.0,-100.00,SE,130,8.0,10.0,79,-99.99,,,-99.99,,2013-02-09 13:41:00,
2013-02-09 07:51:00,26.0,20.0,-100.00,SE,130,8.0,10.0,79,-99.99,,,-99.99,,2013-02-09 13:51:00,
2013-02-09 08:01:00,26.0,20.0,-100.00,SE,130,8.0,10.0,78,-99.99,,,-99.99,,2013-02-09 14:01:00,
2013-02-09 08:11:00,26.0,20.0,-100.00,SE,130,8.0,10.0,78,-99.99,,,-99.99,,2013-02-09 14:11:00,
2013-02-09 08:21:00,26.0,20.0,-100.00,SE,130,7.0,9.0,77,-99.99,,,-99.99,,2013-02-09 14:21:00,
2013-02-09 08:31:00,26.0,20.0,-100.00,SE,140,6.0,7.0,77,-99.99,,,-99.99,,2013-02-09 14:31:00,
2013-02-09 08:41:00,27.0,20.0,-100.00,SE,140,5.0,7.0,76,-99.99,,,-99.99,,2013-02-09 14:41:00,
2013-02-09 08:52:00,27.0,20.0,-100.00,SE,140,5.0,7.0,76,-99.99,,,-99.99,,2013-02-09 14:52:00,
2013-02-09 09:01:00,27.0,20.0,-100.00,SE,130,6.0,8.0,76,-99.99,,,-99.99,,2013-02-09 15:01:00,
2013-02-09 09:11:00,27.0,20.0,-100.00,SE,130,6.0,8.0,76,-99.99,,,-99.99,,2013-02-09 15:11:00,
2013-02-09 09:21:00,27.0,20.0,-100.00,SE,130,5.0,7.0,75,-99.99,,,-99.99,,2013-02-09 15:21:00,
2013-02-09 09:31:00,28.0,20.0,-100.00,SE,140,7.0,10.0,72,-99.99,,,-99.99,,2013-02-09 15:31:00,
2013-02-09 09:41:00,28.0,20.0,-100.00,SE,140,7.0,10.0,72,-99.99,,,-99.99,,2013-02-09 15:41:00,
2013-02-09 09:51:00,28.0,20.0,-100.00,SE,130,9.0,14.0,70,-99.99,,,-99.99,,2013-02-09 15:51:00,
2013-02-09 10:01:00,28.0,20.0,-100.00,SE,130,9.0,11.0,70,-99.99,,,-99.99,,2013-02-09 16:01:00,
2013-02-09 10:11:00,29.0,20.0,-100.00,SSE,150,9.0,14.0,69,-99.99,,,-99.99,,2013-02-09 16:11:00,
2013-02-09 10:21:00,29.0,20.0,-100.00,SSE,150,9.0,14.0,69,-99.99,,,-99.99,,2013-02-09 16:21:00,
2013-02-09 10:31:00,29.0,20.0,-100.00,SSE,160,10.0,15.0,68,-99.99,,,-99.99,,2013-02-09 16:31:00,
2013-02-09 10:41:00,29.0,20.0,-100.00,SE,130,9.0,14.0,68,-99.99,,,-99.99,,2013-02-09 16:41:00,
2013-02-09 10:51:00,29.0,20.0,-100.00,SE,130,9.0,14.0,68,-99.99,,,-99.99,,2013-02-09 16:51:00,
2013-02-09 11:01:00,29.0,20.0,-100.00,South,170,10.0,15.0,70,-99.99,,,-99.99,,2013-02-09 17:01:00,
2013-02-09 11:11:00,29.0,21.0,-100.00,SSE,160,11.0,16.0,70,-99.99,,,-99.99,,2013-02-09 17:11:00,
2013-02-09 11:21:00,29.0,21.0,-100.00,SSE,160,11.0,16.0,70,-99.99,,,-99.99,,2013-02-09 17:21:00,
2013-02-09 11:31:00,29.0,21.0,-100.00,South,170,10.0,13.0,71,-99.99,,,-99.99,,2013-02-09 17:31:00,
2013-02-09 11:41:00,30.0,21.0,-100.00,SSE,150,10.0,13.0,68,-99.99,,,-99.99,,2013-02-09 17:41:00,
2013-02-09 11:52:00,30.0,21.0,-100.00,SSE,150,10.0,13.0,68,-99.99,,,-99.99,,2013-02-09 17:52:00,
2013-02-09 12:01:00,30.0,21.0,-100.00,SSE,160,11.0,17.0,67,-99.99,,,-99.99,,2013-02-09 18:01:00,
2013-02-09 12:11:00,30.0,21.0,-100.00,SSE,160,11.0,17.0,67,-99.99,,,-99.99,,2013-02-09 18:11:00,
2013-02-09 12:22:00,31.0,21.0,-100.00,SE,140,11.0,16.0,68,-99.99,,,-99.99,,2013-02-09 18:22:00,
2013-02-09 12:31:00,31.0,21.0,-100.00,SSE,150,10.0,14.0,67,-99.99,,,-99.99,,2013-02-09 18:31:00,
2013-02-09 12:41:00,31.0,22.0,-100.00,South,170,11.0,18.0,68,-99.99,,,-99.99,,2013-02-09 18:41:00,
2013-02-09 12:51:00,31.0,22.0,-100.00,South,170,11.0,18.0,68,-99.99,,,-99.99,,2013-02-09 18:51:00,
2013-02-09 13:01:00,31.0,22.0,-100.00,SE,140,10.0,14.0,67,-99.99,,,-99.99,,2013-02-09 19:01:00,
2013-02-09 13:11:00,32.0,22.0,-100.00,SE,140,11.0,16.0,67,-99.99,,,-99.99,,2013-02-09 19:11:00,
2013-02-09 13:21:00,32.0,22.0,-100.00,SE,140,11.0,16.0,67,-99.99,,,-99.99,,2013-02-09 19:21:00,
2013-02-09 13:31:00,32.0,22.0,-100.00,SSE,150,13.0,18.0,66,-99.99,,,-99.99,,2013-02-09 19:31:00,
2013-02-09 13:41:00,32.0,22.0,-100.00,SE,130,15.0,20.0,67,-99.99,,,-99.99,,2013-02-09 19:41:00,
2013-02-09 13:51:00,33.0,23.0,-100.00,SE,140,14.0,18.0,65,-99.99,,,-99.99,,2013-02-09 19:51:00,
2013-02-09 14:01:00,33.0,23.0,-100.00,SE,140,14.0,18.0,65,-99.99,,,-99.99,,2013-02-09 20:01:00,
2013-02-09 14:11:00,33.0,23.0,-100.00,SE,140,14.0,18.0,65,-99.99,,,-99.99,,2013-02-09 20:11:00,
2013-02-09 14:21:00,33.0,23.0,-100.00,SSE,150,11.0,17.0,65,-99.99,,,-99.99,,2013-02-09 20:21:00,
2013-02-09 14:31:00,34.0,23.0,-100.00,SSE,150,13.0,20.0,64,-99.99,,,-99.99,,2013-02-09 20:31:00,
2013-02-09 14:41:00,34.0,23.0,-100.00,SSE,150,13.0,20.0,64,-99.99,,,-99.99,,2013-02-09 20:41:00,
2013-02-09 14:52:00,34.0,23.0,-100.00,SSE,150,11.0,18.0,62,-99.99,,,-99.99,,2013-02-09 20:52:00,
2013-02-09 15:01:00,35.0,24.0,-100.00,SSE,150,11.0,21.0,63,-99.99,,,-99.99,,2013-02-09 21:01:00,
2013-02-09 15:11:00,35.0,24.0,-100.00,SSE,150,11.0,16.0,64,-99.99,,,-99.99,,2013-02-09 21:11:00,
2013-02-09 15:21:00,35.0,24.0,-100.00,SSE,150,11.0,16.0,64,-99.99,,,-99.99,,2013-02-09 21:21:00,
2013-02-09 15:31:00,35.0,24.0,-100.00,SE,130,15.0,20.0,64,-99.99,,,-99.99,,2013-02-09 21:31:00,
2013-02-09 15:41:00,36.0,25.0,-100.00,SSE,150,10.0,17.0,64,-99.99,,,-99.99,,2013-02-09 21:41:00,
2013-02-09 15:51:00,36.0,25.0,-100.00,SSE,150,10.0,17.0,64,-99.99,,,-99.99,,2013-02-09 21:51:00,
2013-02-09 16:01:00,36.0,24.0,-100.00,SE,140,13.0,17.0,63,-99.99,,,-99.99,,2013-02-09 22:01:00,
2013-02-09 16:11:00,36.0,24.0,-100.00,SE,140,13.0,17.0,63,-99.99,,,-99.99,,2013-02-09 22:11:00,
2013-02-09 16:21:00,36.0,25.0,-100.00,SSE,160,10.0,15.0,63,-99.99,,,-99.99,,2013-02-09 22:21:00,
2013-02-09 16:31:00,36.0,25.0,-100.00,SE,140,13.0,18.0,64,-99.99,,,-99.99,,2013-02-09 22:31:00,
2013-02-09 16:41:00,36.0,25.0,-100.00,SSE,150,13.0,16.0,64,-99.99,,,-99.99,,2013-02-09 22:41:00,
2013-02-09 16:51:00,36.0,25.0,-100.00,SSE,150,13.0,16.0,64,-99.99,,,-99.99,,2013-02-09 22:51:00,
2013-02-09 17:01:00,36.0,25.0,-100.00,SSE,150,14.0,18.0,64,-99.99,,,-99.99,,2013-02-09 23:01:00,
2013-02-09 17:11:00,36.0,25.0,-100.00,SE,130,13.0,20.0,64,-99.99,,,-99.99,,2013-02-09 23:11:00,
2013-02-09 17:21:00,36.0,25.0,-100.00,SE,130,13.0,20.0,64,-99.99,,,-99.99,,2013-02-09 23:21:00,
2013-02-09 17:31:00,35.0,25.0,-100.00,SE,130,11.0,15.0,64,-99.99,,,-99.99,,2013-02-09 23:31:00,
2013-02-09 17:41:00,35.0,25.0,-100.00,SE,130,11.0,15.0,64,-99.99,,,-99.99,,2013-02-09 23:41:00,
2013-02-09 17:52:00,35.0,25.0,-100.00,SE,130,10.0,16.0,66,-99.99,,,-99.99,,2013-02-09 23:52:00,
2013-02-09 18:02:00,34.0,25.0,-100.00,ESE,120,10.0,15.0,67,-99.99,,,-99.99,,2013-02-10 00:02:00,
2013-02-09 18:11:00,34.0,25.0,-100.00,ESE,120,10.0,15.0,67,-99.99,,,-99.99,,2013-02-10 00:11:00,
2013-02-09 18:21:00,34.0,25.0,-100.00,SE,130,13.0,18.0,68,-99.99,,,-99.99,,2013-02-10 00:21:00,
2013-02-09 18:31:00,34.0,25.0,-100.00,SE,130,13.0,18.0,69,-99.99,,,-99.99,,2013-02-10 00:31:00,
2013-02-09 18:41:00,34.0,25.0,-100.00,SE,130,13.0,18.0,69,-99.99,,,-99.99,,2013-02-10 00:41:00,
2013-02-09 18:51:00,34.0,25.0,-100.00,SE,130,13.0,18.0,69,-99.99,,,-99.99,,2013-02-10 00:51:00,
2013-02-09 19:01:00,33.0,25.0,-100.00,SE,130,14.0,20.0,69,-99.99,,,-99.99,,2013-02-10 01:01:00,
2013-02-09 19:11:00,33.0,25.0,-100.00,SE,130,14.0,20.0,69,-99.99,,,-99.99,,2013-02-10 01:11:00,
2013-02-09 19:21:00,34.0,25.0,-100.00,SE,130,15.0,21.0,69,-99.99,,,-99.99,,2013-02-10 01:21:00,
2013-02-09 19:31:00,34.0,25.0,-100.00,SE,130,15.0,21.0,69,-99.99,,,-99.99,,2013-02-10 01:31:00,
2013-02-09 19:41:00,33.0,25.0,-100.00,SE,130,13.0,20.0,70,-99.99,,,-99.99,,2013-02-10 01:41:00,
2013-02-09 19:51:00,33.0,25.0,-100.00,SE,130,13.0,20.0,70,-99.99,,,-99.99,,2013-02-10 01:51:00,
2013-02-09 20:01:00,33.0,25.0,-100.00,ESE,120,15.0,22.0,71,-99.99,,,-99.99,,2013-02-10 02:01:00,
2013-02-09 20:11:00,33.0,25.0,-100.00,ESE,120,15.0,22.0,71,-99.99,,,-99.99,,2013-02-10 02:11:00,
2013-02-09 20:21:00,33.0,25.0,-100.00,SE,130,16.0,23.0,71,-99.99,,,-99.99,,2013-02-10 02:21:00,
2013-02-09 20:31:00,33.0,25.0,-100.00,SE,130,16.0,22.0,71,-99.99,,,-99.99,,2013-02-10 02:31:00,
2013-02-09 20:41:00,33.0,25.0,-100.00,SE,130,17.0,24.0,70,-99.99,,,-99.99,,2013-02-10 02:41:00,
2013-02-09 20:52:00,33.0,25.0,-100.00,SE,130,17.0,24.0,70,-99.99,,,-99.99,,2013-02-10 02:52:00,
2013-02-09 21:01:00,33.0,24.0,-100.00,SE,130,17.0,23.0,70,-99.99,,,-99.99,,2013-02-10 03:01:00,
2013-02-09 21:11:00,33.0,24.0,-100.00,SE,130,17.0,23.0,70,-99.99,,,-99.99,,2013-02-10 03:11:00,
2013-02-09 21:21:00,33.0,24.0,-100.00,SE,130,17.0,24.0,70,-99.99,,,-99.99,,2013-02-10 03:21:00,
2013-02-09 21:31:00,33.0,24.0,-100.00,SE,130,17.0,22.0,69,-99.99,,,-99.99,,2013-02-10 03:31:00,
2013-02-09 21:41:00,33.0,24.0,-100.00,SE,130,15.0,21.0,69,-99.99,,,-99.99,,2013-02-10 03:41:00,
2013-02-09 21:51:00,33.0,24.0,-100.00,SE,130,14.0,21.0,68,-99.99,,,-99.99,,2013-02-10 03:51:00,
2013-02-09 22:01:00,33.0,24.0,-100.00,SE,130,14.0,21.0,68,-99.99,,,-99.99,,2013-02-10 04:01:00,
2013-02-09 22:11:00,33.0,24.0,-100.00,SE,130,14.0,21.0,68,-99.99,,,-99.99,,2013-02-10 04:11:00,
2013-02-09 22:21:00,33.0,24.0,-100.00,SE,130,17.0,25.0,67,-99.99,,,-99.99,,2013-02-10 04:21:00,
2013-02-09 22:31:00,33.0,24.0,-100.00,ESE,120,15.0,23.0,67,-99.99,,,-99.99,,2013-02-10 04:31:00,
2013-02-09 22:41:00,33.0,24.0,-100.00,ESE,120,16.0,20.0,68,-99.99,,,-99.99,,2013-02-10 04:41:00,
2013-02-09 22:51:00,33.0,24.0,-100.00,ESE,120,16.0,20.0,68,-99.99,,,-99.99,,2013-02-10 04:51:00,
2013-02-09 23:01:00,33.0,23.0,-100.00,SE,130,18.0,24.0,67,-99.99,,,-99.99,,2013-02-10 05:01:00,
2013-02-09 23:11:00,33.0,23.0,-100.00,SE,130,18.0,28.0,68,-99.99,,,-99.99,,2013-02-10 05:11:00,
2013-02-09 23:22:00,33.0,23.0,-100.00,SE,130,18.0,28.0,68,-99.99,,,-99.99,,2013-02-10 05:22:00,
2013-02-09 23:31:00,33.0,23.0,-100.00,SE,130,18.0,24.0,67,-99.99,,,-99.99,,2013-02-10 05:31:00,
2013-02-09 23:41:00,33.0,23.0,-100.00,SE,130,16.0,23.0,66,-99.99,,,-99.99,,2013-02-10 05:41:00,
2013-02-09 23:52:00,33.0,23.0,-100.00,SE,130,16.0,23.0,66,-99.99,,,-99.99,,2013-02-10 05:52:00,